Location: Newark
(36.6333°N, 138.1833°E)
Time: 09:13:48
(UTC+00:00)

RS-15 - Visible Passes

Search period start: 06 June 2020 00:00
Search period end: 16 June 2020 00:00
Orbit: 1897 x 2147 km, 64.8° (Epoch: 05 June)

Date Brightness Start Highest point End Pass type
(mag) Time Alt. Az. Time Alt. Az. Time Alt. Az.
06 Jun 8.1 15:54:38 42° SSE 15:58:28 59° ESE 16:09:04 10° NE visible
06 Jun 8.7 18:02:22 14° WSW 18:11:13 39° NW 18:21:21 10° NNE visible
07 Jun 8.3 15:19:47 38° SE 15:22:42 44° ESE 15:32:44 10° NE visible
07 Jun 8.4 17:27:32 22° WSW 17:34:49 50° NW 17:45:26 10° NNE visible
08 Jun 8.6 14:44:54 30° SE 14:47:02 32° ESE 14:56:09 10° NE visible
08 Jun 8.1 16:52:38 31° SW 16:58:33 64° NW 17:09:28 10° NNE visible
09 Jun 9.0 14:09:59 22° ESE 14:11:27 23° ESE 14:19:10 10° NE visible
09 Jun 7.9 16:17:42 41° SW 16:22:26 81° WNW 16:33:28 10° NNE visible
09 Jun 9.3 18:28:20 10° W 18:36:45 25° NNW 18:45:19 10° NNE visible
10 Jun 9.3 13:35:01 15° ESE 13:35:59 15° E 13:41:20 10° ENE visible
10 Jun 7.8 15:42:45 49° SSW 15:46:26 80° ESE 15:57:24 10° NNE visible
10 Jun 9.0 17:50:46 10° W 18:00:00 30° NW 18:09:23 10° NNE visible
11 Jun 7.9 15:07:46 50° SSE 15:10:34 62° ESE 15:21:14 10° NE visible
11 Jun 8.7 17:15:29 16° WSW 17:23:24 38° NW 17:33:27 10° NNE visible
12 Jun 8.2 14:32:44 42° SE 14:34:46 46° ESE 14:44:54 10° NE visible
12 Jun 8.4 16:40:27 24° WSW 16:46:58 48° NW 16:57:32 10° NNE visible
12 Jun 9.6 18:56:40 10° WNW 19:03:07 17° NNW 19:09:38 10° NNE visible
13 Jun 8.5 13:57:40 33° ESE 13:59:05 34° ESE 14:08:22 10° NE visible
13 Jun 8.1 16:05:22 34° WSW 16:10:42 61° NW 16:21:34 10° NNE visible
13 Jun 9.6 18:18:35 10° WNW 18:25:58 20° NNW 18:33:29 10° NNE visible
14 Jun 8.8 13:22:33 24° ESE 13:23:30 24° ESE 13:31:28 10° NE visible
14 Jun 7.9 15:30:15 44° SW 15:34:33 78° WNW 15:45:35 10° NNE visible
14 Jun 9.4 17:40:42 10° W 17:49:00 24° NNW 17:57:27 10° NNE visible
15 Jun 9.2 12:47:23 16° ESE 12:48:00 16° E 12:53:48 10° ENE visible
15 Jun 7.8 14:55:06 52° SSW 14:58:32 83° ESE 15:09:32 10° NNE visible
15 Jun 9.1 17:03:05 10° W 17:12:12 29° NW 17:21:29 10° NNE visible
